This is the latest recevied weather packets stored in our database for station/object N3WMC. If no packets are shown the sender has not sent any weather packets the latest 10 day(s).
| Time | Temp. | Humidity | Pressure | Rain* | Wind** | Luminosity | Snow |
|---|---|---|---|---|---|---|---|
| 1778190129 | 15.56° C | 37% | 1010.8 hPa | 0 mm | - | 264 W/m² | - |
| 1778189824 | 15° C | 37% | 1010.6 hPa | 0 mm | - | 72 W/m² | - |
| 1778189522 | 15.56° C | 37% | 1010.6 hPa | 0 mm | - | 159 W/m² | - |
| 1778189217 | 15.56° C | 37% | 1010.9 hPa | 0 mm | - | 197 W/m² | - |
| 1778188914 | 15.56° C | 36% | 1010.7 hPa | 0 mm | - | 247 W/m² | - |
| 1778188611 | 15.56° C | 36% | 1010.9 hPa | 0 mm | - | 181 W/m² | - |
| 1778188306 | 15.56° C | 38% | 1010.5 hPa | 0 mm | - | 148 W/m² | - |
| 1778188005 | 15.56° C | 36% | 1010.4 hPa | 0 mm | - | 128 W/m² | - |
| 1778187701 | 16.11° C | 36% | 1010.3 hPa | 0 mm | - | 122 W/m² | - |
| 1778187398 | 16.11° C | 35% | 1010.4 hPa | 0 mm | - | 237 W/m² | - |
| 1778187094 | 15.56° C | 35% | 1010.6 hPa | 0 mm | - | 157 W/m² | - |
| 1778186791 | 15.56° C | 35% | 1010.5 hPa | 0 mm | - | 157 W/m² | - |
| 1778186488 | 15.56° C | 37% | 1010.5 hPa | 0 mm | - | 171 W/m² | - |
| 1778186186 | 15.56° C | 36% | 1010.4 hPa | 0 mm | - | 141 W/m² | - |
| 1778185883 | 16.11° C | 35% | 1010.5 hPa | 0 mm | - | 162 W/m² | - |
| 1778185579 | 17.22° C | 34% | 1010.4 hPa | 0 mm | - | 169 W/m² | - |
| 1778185276 | 17.22° C | 35% | 1010.5 hPa | 0 mm | - | 282 W/m² | - |
| 1778184976 | 17.22° C | 34% | 1010.3 hPa | 0 mm | - | 524 W/m² | - |
| 1778184674 | 16.11° C | 36% | 1010.5 hPa | 0 mm | - | 584 W/m² | - |
| 1778184369 | 16.11° C | 35% | 1010.8 hPa | 0 mm | - | 185 W/m² | - |
| 1778184065 | 16.67° C | 35% | 1010.6 hPa | 0 mm | - | 453 W/m² | - |
| 1778183763 | 15.56° C | 38% | 1010.8 hPa | 0 mm | - | 167 W/m² | - |
| 1778183460 | 16.11° C | 39% | 1010.6 hPa | 0 mm | - | 207 W/m² | - |
| 1778183156 | 15.56° C | 38% | 1010.7 hPa | 0 mm | - | 190 W/m² | - |
| 1778182852 | 15.56° C | 39% | 1010.9 hPa | 0 mm | - | 166 W/m² | - |
* Rain latest hour (hover to see other rain measurements)
** Current wind speed in m/s (hover to see current wind gust speed)